User: anonymous   Login
Location: Nebula Knoll Observatory
(43.6666°N, 71.0000°W)
Time: 04:26:09
(UTC-04:00)
Language:

Cosmos 1782 - Orbit

View from above orbital plane
View from above orbital plane
View from above satellite
View from above satellite

Ground track
Ground track

The orbit data is extracted from the following two-line orbital elements,

1 16986U 86074A   17266.80859775 +.00001172 +00000-0 +76989-4 0  9990
2 16986 082.5093 025.2805 0011678 010.6656 349.4817 15.06654019664524
Epoch (UTC): 23 September 2017 19:24:22
Eccentricity: 0.0011678
inclination: 82.5093°
perigee height: 538 km
apogee height: 554 km
right ascension of ascending node: 25.2805°
argument of perigee: 10.6656°
revolutions per day: 15.06654019
mean anomaly at epoch: 349.4817°
orbit number at epoch: 66452

The dashed part of the orbit path shows where the satellite is in the earth's shadow,  

DLR